Satellite-Ground Cal/Val Site Overpasses Predictions

Prediction of Satellite NPP Overpassing Cal/Val Site: Antarctic Dome C

Ground Cal/Val Site Location: Latitude: -75.10, Longitude: 123.35; Satellite-Ground Site NADIR distance within 100 km.

Table of predicted overpasses for the next 14.0 days since TLE Epoch: 2/7/2014
Interval Starting Time Ending Time Minimum Distance Time Minimum Distance (km)
1 02/07/2014 14:39:24 02/07/2014 14:39:41 02/07/2014 14:39:33 79.44
2 02/08/2014 07:40:58 02/08/2014 07:41:26 02/08/2014 07:41:12 31.47
3 02/09/2014 07:22:15 02/09/2014 07:22:33 02/09/2014 07:22:24 78.57
4 02/11/2014 15:04:32 02/11/2014 15:04:54 02/11/2014 15:04:43 64.58
5 02/12/2014 14:45:41 02/12/2014 14:46:07 02/12/2014 14:45:54 44.60
6 02/13/2014 07:47:23 02/13/2014 07:47:45 02/13/2014 07:47:34 66.54
7 02/14/2014 07:28:32 02/14/2014 07:28:58 02/14/2014 07:28:45 41.30
8 02/17/2014 14:52:01 02/17/2014 14:52:30 02/17/2014 14:52:16 9.50


NCC Satellite Cal/Val Overpasses Prediction Service
